Location: Skåre
(59.4350°N, 13.4396°E)
Time: 03:15:50
(UTC+01:00)

ISS - Visible Passes

Search period start: 01 March 2021 00:00
Search period end: 11 March 2021 00:00
Orbit: 417 x 422 km, 51.6° (Epoch: 28 February)

Date Brightness Start Highest point End Pass type
(mag) Time Alt. Az. Time Alt. Az. Time Alt. Az.
01 Mar -1.8 04:53:50 18° S 04:54:35 19° SSE 04:57:03 10° ESE visible
02 Mar -1.3 04:08:10 16° SE 04:08:10 16° SE 04:09:34 10° ESE visible
02 Mar -2.0 05:41:08 12° SW 05:43:23 22° S 05:46:03 10° SE visible
03 Mar -2.1 04:55:27 21° SSW 04:56:06 22° S 04:58:45 10° SE visible
04 Mar -1.6 04:09:46 18° SSE 04:09:46 18° SSE 04:11:24 10° ESE visible
04 Mar -1.9 05:42:44 12° SW 05:44:53 19° SSW 05:47:23 10° SE visible
05 Mar -2.1 04:57:04 20° SSW 04:57:35 21° S 05:00:13 10° SE visible
06 Mar -1.7 04:11:25 18° SSE 04:11:25 18° SSE 04:12:57 10° SE visible
06 Mar -1.6 05:44:22 10° WSW 05:46:19 15° SSW 05:48:17 10° SSE visible
07 Mar -1.9 04:58:46 17° SSW 04:59:03 17° SSW 05:01:21 10° SSE visible
08 Mar -1.5 04:13:12 15° SSE 04:13:12 15° SSE 04:14:16 10° SE visible
09 Mar -1.5 05:00:41 12° SSW 05:00:41 12° SSW 05:01:48 10° S visible
